This demonstration page uses our WeatherBlox Daily Observations layout. Learn more.

Left ArrowRight Arrow

Hourly Observations for August 14, 2022

Temp ( °F °C ) Dew Point ( °F °C ) Humidity (%) Winds ( mph kmh ) Pressure ( in mb ) Visibility ( mi km ) Precip ( " mm )
12:15 am 00:15 Clear 69 20.5 67 19.5 94 94 ENE 7 11 29.96 1015 10 16 0.00 0.00
12:35 am 00:35 Clear 69 20.5 67 19.5 94 94 E 8 13 29.96 1015 10 16 0.00 0.00
12:55 am 00:55 Clear 69 20.5 67 19.5 94 94 E 7 11 29.96 1015 10 16 0.00 0.00
1:15 am 01:15 Clear 68 20 67 19.2 95 95 E 6 9 29.97 1015 7 11 0.00 0.00
1:35 am 01:35 Clear 68 20.1 67 19.5 96 96 E 8 13 29.96 1014 7 11 0.00 0.00
1:55 am 01:55 Clear 68 20 67 19.3 96 96 E 9 15 29.96 1015 7 11 0.00 0.00
2:15 am 02:15 Clear with Mist and Fog 68 19.8 66 19.1 96 96 E 7 11 29.96 1015 5 8 0.00 0.00
2:35 am 02:35 Clear with Mist and Fog 67 19.6 66 19 96 96 E 9 15 29.96 1015 5 8 0.00 0.00
2:55 am 02:55 Clear with Mist and Fog 67 19.4 66 18.8 96 96 E 7 11 29.95 1014 5 8 0.00 0.00
3:15 am 03:15 Clear with Mist and Fog 67 19.2 66 18.7 97 97 E 8 13 29.94 1014 5 8 0.00 0.00
3:35 am 03:35 Clear with Mist and Fog 66 19.1 65 18.6 97 97 E 6 9 29.95 1014 5 8 0.00 0.00
3:55 am 03:55 Clear with Mist and Fog 66 19 65 18.5 97 97 E 7 11 29.96 1014 4 6 0.00 0.00
4:15 am 04:15 Clear with Mist and Fog 66 18.8 65 18.2 96 96 E 6 9 29.95 1014 5 8 0.00 0.00
4:35 am 04:35 Clear with Mist and Fog 65 18.5 64 18 97 97 E 6 9 29.95 1014 4 6 0.00 0.00
4:55 am 04:55 Clear with Mist and Fog 65 18.5 64 18 97 97 E 6 9 29.95 1014 4 6 0.00 0.00
5:15 am 05:15 Clear with Mist and Fog 65 18.3 64 18 98 98 E 7 11 29.95 1014 3 5 0.00 0.00
5:35 am 05:35 Partly Cloudy with Mist and Fog 65 18.3 64 18 98 98 ENE 7 11 29.95 1014 3 5 0.00 0.00
5:55 am 05:55 Mostly Cloudy with Mist and Fog 65 18.3 64 18 98 98 E 7 11 29.95 1014 3 5 0.00 0.00
6:15 am 06:15 Mostly Cloudy with Mist and Fog 65 18.1 64 17.8 98 98 E 6 9 29.95 1014 3 5 0.00 0.00
6:35 am 06:35 Cloudy with Mist and Fog 65 18.2 64 18 99 99 E 8 13 29.95 1014 3 5 0.00 0.00
6:55 am 06:55 Cloudy with Mist and Fog 65 18.3 64 18 98 98 E 10 17 29.95 1014 2 3 0.00 0.00
7:15 am 07:15 Cloudy with Mist and Fog 65 18.3 64 18 98 98 ESE 9 15 29.95 1014 2 3 0.00 0.00
7:35 am 07:35 Mostly Cloudy with Mist and Fog 65 18.6 65 18.1 97 97 ESE 7 11 29.95 1014 3 5 0.00 0.00
7:55 am 07:55 Mostly Cloudy with Mist and Fog 66 18.8 65 18.2 96 96 ESE 7 11 29.96 1014 4 6 0.00 0.00
8:15 am 08:15 Partly Cloudy with Mist and Fog 66 19.1 65 18.5 96 96 SE 9 15 29.95 1014 4 6 0.00 0.00
8:35 am 08:35 Sunny with Mist and Fog 67 19.5 65 18.5 94 94 ESE 10 17 29.95 1014 5 8 0.00 0.00
8:55 am 08:55 Partly Cloudy 68 20.2 66 19 93 93 ESE 12 19 29.95 1014 7 11 0.00 0.00
9:15 am 09:15 Partly Cloudy 70 20.9 66 19.1 89 89 ESE 12 19 29.94 1014 10 16 0.00 0.00
9:35 am 09:35 Mostly Cloudy 71 21.6 67 19.3 87 87 ENE 9 15 29.95 1014 10 16 0.00 0.00
9:55 am 09:55 Cloudy 72 22 67 19.4 85 85 E 10 17 29.94 1014 10 16 0.00 0.00
10:15 am 10:15 Cloudy 73 22.5 67 19.5 83 83 E 12 19 29.94 1014 10 16 0.00 0.00
10:35 am 10:35 Partly Cloudy 74 23.3 67 19.6 80 80 E 12 19 29.93 1014 10 16 0.00 0.00
10:55 am 10:55 Sunny 76 24.2 68 19.9 77 77 E 10 17 29.91 1013 10 16 0.00 0.00
11:15 am 11:15 Sunny 77 25 68 20.2 75 75 ESE 12 19 29.91 1013 10 16 0.00 0.00
11:35 am 11:35 Sunny 79 25.9 69 20.7 73 73 ESE 10 17 29.89 1012 10 16 0.00 0.00
11:55 am 11:55 Sunny 79 26.2 69 20.6 71 71 E 10 17 29.89 1012 10 16 0.00 0.00
12:15 pm 12:15 Sunny 80 26.9 69 20.7 69 69 E 12 19 29.88 1012 10 16 0.00 0.00
12:35 pm 12:35 Sunny 82 27.6 70 21.3 69 69 E 12 19 29.87 1011 10 16 0.00 0.00
12:55 pm 12:55 Sunny 83 28.3 71 21.6 67 67 ESE 13 20 29.86 1011 10 16 0.00 0.00
1:15 pm 13:15 Sunny 83 28.6 71 21.8 67 67 E 13 20 29.86 1011 10 16 0.00 0.00
1:35 pm 13:35 Sunny 85 29.2 69 20.6 60 60 ESE 14 22 29.84 1011 10 16 0.00 0.00
1:55 pm 13:55 Sunny 85 29.6 70 21.2 61 61 ESE 14 22 29.84 1011 10 16 0.00 0.00
2:15 pm 14:15 Sunny 87 30.3 71 21.4 59 59 E 14 22 29.84 1010 10 16 0.00 0.00
2:35 pm 14:35 Sunny 87 30.8 70 21.1 56 56 ESE 14 22 29.82 1010 10 16 0.00 0.00
2:55 pm 14:55 Sunny 88 31.2 69 20.5 53 53 E 13 20 29.82 1010 10 16 0.00 0.00
3:15 pm 15:15 Sunny 89 31.7 69 20.6 52 52 ESE 12 19 29.82 1010 10 16 0.00 0.00
3:35 pm 15:35 Sunny 89 31.9 69 20.5 51 51 ESE 12 19 29.81 1010 10 16 0.00 0.00
3:55 pm 15:55 Sunny 90 32 68 20.2 50 50 ESE 12 19 29.80 1009 10 16 0.00 0.00
4:15 pm 16:15 Sunny 90 32.3 68 20.2 49 49 ESE 14 22 29.79 1009 10 16 0.00 0.00
4:35 pm 16:35 Sunny 91 32.5 68 20.1 48 48 E 14 22 29.79 1009 10 16 0.00 0.00
4:55 pm 16:55 Sunny 90 32.1 69 20.7 51 51 E 14 22 29.78 1008 10 16 0.00 0.00
5:15 pm 17:15 Sunny 90 32.1 71 21.4 53 53 E 15 24 29.77 1008 10 16 0.00 0.00
5:35 pm 17:35 Sunny 90 32 70 21.1 53 53 E 15 24 29.77 1008 10 16 0.00 0.00
5:55 pm 17:55 Sunny 89 31.5 69 20.4 52 52 E 14 22 29.77 1008 10 16 0.00 0.00
6:15 pm 18:15 Sunny 88 31.2 69 20.8 54 54 E 13 20 29.77 1008 10 16 0.00 0.00
6:35 pm 18:35 Sunny 87 30.6 69 20.5 55 55 E 15 24 29.76 1008 10 16 0.00 0.00
6:55 pm 18:55 Sunny 86 30.1 69 20.6 57 57 E 12 19 29.77 1008 10 16 0.00 0.00
7:10 pm 19:10 Sunny 85 29.6 69 20.6 59 59 E 12 19 29.77 1008 10 16 0.00 0.00
7:35 pm 19:35 Sunny 84 28.7 71 21.4 65 65 E 10 17 29.77 1008 10 16 0.00 0.00
7:55 pm 19:55 Sunny 82 27.8 71 21.8 70 70 E 12 19 29.78 1008 10 16 0.00 0.00
8:15 pm 20:15 Sunny 80 26.6 71 21.8 75 75 E 13 20 29.78 1009 10 16 0.00 0.00
8:35 pm 20:35 Sunny 78 25.8 71 21.5 77 77 E 12 19 29.80 1009 10 16 0.00 0.00
8:55 pm 20:55 Clear 77 25.2 71 21.5 80 80 E 14 22 29.80 1009 10 16 0.00 0.00
9:15 pm 21:15 Clear 77 24.8 70 21.1 80 80 E 14 22 29.81 1009 10 16 0.00 0.00
9:35 pm 21:35 Clear 76 24.3 69 20.7 80 80 E 13 20 29.82 1010 10 16 0.00 0.00
9:55 pm 21:55 Clear 75 24 68 20.2 79 79 E 13 20 29.83 1010 10 16 0.00 0.00
10:15 pm 22:15 Clear 75 23.8 67 19.6 77 77 E 13 20 29.85 1011 10 16 0.00 0.00
10:35 pm 22:35 Clear 74 23.6 67 19.3 77 77 E 12 19 29.85 1011 10 16 0.00 0.00
10:55 pm 22:55 Clear 74 23.2 66 18.9 77 77 E 12 19 29.85 1011 10 16 0.00 0.00
11:15 pm 23:15 Clear 73 23 65 18.5 76 76 E 10 17 29.85 1011 10 16 0.00 0.00
11:35 pm 23:35 Clear 73 22.6 65 18.1 76 76 E 9 15 29.85 1011 10 16 0.00 0.00
11:55 pm 23:55 Clear 72 22.1 64 17.8 77 77 ESE 8 13 29.86 1011 10 16 0.00 0.00

Powered by AerisWeather